When you browse on this site, cookies collect data to enhance your experience and personalize the content and advertising you see.
Visit our Privacy Policy to learn more. By continuing to use the site, you agree to this use of cookies and data.
  • In Hungary
  • List of Countries
  • For 7 days
  • Water Temperature
  • Weather Map
  • News
  • Weather Widgets
  • user-avatar
    Login

    Hourly Weather Sarytogan

    Today, 10 December, Tuesday

    Time Temperature Precipitation Wind Pressure Humidity
    00:00 +10°C° 0 mm 1 mps 734 mmHg 40%
    01:00 +10°C° 0 mm 2 mps 734 mmHg 39%
    02:00 +10°C° 0 mm 2 mps 734 mmHg 39%
    03:00 +9°C° 0 mm 2 mps 734 mmHg 39%
    04:00 +9°C° 0 mm 2 mps 734 mmHg 39%
    05:00 +9°C° 0 mm 2 mps 734 mmHg 38%
    06:00 +9°C° 0 mm 2 mps 734 mmHg 38%
    07:00 +9°C° 0 mm 2 mps 734 mmHg 39%
    08:00 +10°C° 0 mm 1 mps 735 mmHg 40%
    09:00 +11°C° 0 mm 1 mps 735 mmHg 39%
    10:00 +12°C° 0 mm 2 mps 735 mmHg 38%
    11:00 +14°C° 0 mm 2 mps 736 mmHg 39%
    12:00 +14°C° 0 mm 2 mps 736 mmHg 39%
    13:00 +14°C° 0 mm 2 mps 736 mmHg 39%
    14:00 +15°C° 0 mm 2 mps 736 mmHg 40%
    15:00 +13°C° 0 mm 2 mps 736 mmHg 44%
    16:00 +12°C° 0 mm 1 mps 736 mmHg 49%
    17:00 +11°C° 0 mm 1 mps 736 mmHg 54%
    18:00 +10°C° 0 mm 1 mps 736 mmHg 56%
    19:00 +10°C° 0 mm 1 mps 736 mmHg 58%
    20:00 +10°C° 0 mm 1 mps 736 mmHg 60%
    21:00 +9°C° 0 mm 1 mps 736 mmHg 63%
    22:00 +8°C° 0 mm 0 mps 736 mmHg 66%
    23:00 +7°C° 0 mm 0 mps 736 mmHg 69%

    Tomorrow, 11 December, Wednesday

    Time Temperature Precipitation Wind Pressure Humidity
    00:00 +7°C° 0 mm 0 mps 736 mmHg 70%
    01:00 +8°C° 0 mm 1 mps 736 mmHg 72%
    02:00 +7°C° 0 mm 1 mps 736 mmHg 73%
    03:00 +7°C° 0 mm 1 mps 736 mmHg 74%
    04:00 +7°C° 0 mm 1 mps 736 mmHg 74%
    05:00 +7°C° 0 mm 1 mps 736 mmHg 74%
    06:00 +7°C° 0 mm 1 mps 736 mmHg 74%
    07:00 +7°C° 0 mm 1 mps 736 mmHg 74%
    08:00 +6°C° 0 mm 0 mps 736 mmHg 74%
    09:00 +9°C° 0 mm 1 mps 736 mmHg 69%
    10:00 +10°C° 0 mm 1 mps 736 mmHg 65%
    11:00 +11°C° 0 mm 1 mps 736 mmHg 60%
    12:00 +12°C° 0 mm 1 mps 735 mmHg 59%
    13:00 +12°C° 0 mm 1 mps 735 mmHg 58%
    14:00 +13°C° 0 mm 1 mps 734 mmHg 57%
    15:00 +12°C° 0 mm 1 mps 734 mmHg 61%
    16:00 +11°C° 0 mm 1 mps 734 mmHg 65%
    17:00 +9°C° 0 mm 2 mps 734 mmHg 69%
    18:00 +10°C° 0 mm 1 mps 734 mmHg 70%
    19:00 +9°C° 0 mm 1 mps 734 mmHg 71%
    20:00 +9°C° 0 mm 1 mps 734 mmHg 72%
    21:00 +8°C° 0 mm 1 mps 733 mmHg 73%
    22:00 +8°C° 0 mm 1 mps 733 mmHg 73%
    23:00 +7°C° 0 mm 0 mps 733 mmHg 74%

    Day after tomorrow, 12 December, Thursday

    Time Temperature Precipitation Wind Pressure Humidity
    00:00 +6°C° 0 mm 0 mps 733 mmHg 74%
    01:00 +6°C° 0 mm 0 mps 733 mmHg 74%
    02:00 +6°C° 0 mm 0 mps 733 mmHg 73%
    03:00 +6°C° 0 mm 0 mps 733 mmHg 74%
    04:00 +7°C° 0 mm 1 mps 732 mmHg 75%
    05:00 +7°C° 0 mm 1 mps 732 mmHg 76%
    06:00 +7°C° 0 mm 1 mps 733 mmHg 77%
    07:00 +6°C° 0 mm 1 mps 733 mmHg 77%
    08:00 +6°C° 0 mm 1 mps 733 mmHg 78%
    09:00 +8°C° 0 mm 1 mps 733 mmHg 73%
    10:00 +9°C° 0 mm 1 mps 733 mmHg 68%
    11:00 +10°C° 0 mm 1 mps 733 mmHg 63%
    12:00 +10°C° 0 mm 2 mps 733 mmHg 61%
    13:00 +12°C° 0 mm 2 mps 732 mmHg 59%
    14:00 +12°C° 0 mm 3 mps 732 mmHg 57%
    15:00 +10°C° 0.1 mm 2 mps 732 mmHg 62%
    16:00 +9°C° 0.1 mm 2 mps 732 mmHg 68%
    17:00 +9°C° 0.1 mm 1 mps 733 mmHg 73%
    18:00 +9°C° 0.1 mm 1 mps 733 mmHg 75%
    19:00 +7°C° 0.1 mm 2 mps 733 mmHg 78%
    20:00 +7°C° 0.1 mm 2 mps 733 mmHg 80%
    21:00 +7°C° 0 mm 2 mps 733 mmHg 82%
    22:00 +6°C° 0 mm 2 mps 733 mmHg 85%
    23:00 +6°C° 0 mm 2 mps 733 mmHg 87%

    13 December, Friday

    Time Temperature Precipitation Wind Pressure Humidity
    00:00 +6°C° 0.1 mm 2 mps 733 mmHg 88%
    01:00 +5°C° 0.1 mm 2 mps 733 mmHg 88%
    02:00 +5°C° 0.1 mm 2 mps 733 mmHg 89%
    03:00 +5°C° 0.1 mm 2 mps 733 mmHg 87%
    04:00 +5°C° 0.1 mm 2 mps 733 mmHg 86%
    05:00 +6°C° 0.1 mm 1 mps 733 mmHg 84%
    06:00 +6°C° 0.3 mm 1 mps 733 mmHg 84%
    07:00 +6°C° 0.3 mm 1 mps 733 mmHg 83%
    08:00 +6°C° 0.3 mm 1 mps 733 mmHg 83%
    09:00 +6°C° 0.2 mm 1 mps 733 mmHg 82%
    10:00 +7°C° 0.2 mm 1 mps 733 mmHg 80%
    11:00 +6°C° 0.2 mm 2 mps 733 mmHg 78%
    12:00 +7°C° 0 mm 3 mps 732 mmHg 73%
    13:00 +7°C° 0 mm 3 mps 732 mmHg 68%
    14:00 +7°C° 0 mm 4 mps 732 mmHg 63%
    15:00 +6°C° 0 mm 4 mps 732 mmHg 63%
    16:00 +7°C° 0 mm 3 mps 732 mmHg 64%
    17:00 +5°C° 0 mm 3 mps 732 mmHg 64%
    18:00 +6°C° 0 mm 2 mps 732 mmHg 65%
    19:00 +6°C° 0 mm 2 mps 732 mmHg 66%
    20:00 +6°C° 0 mm 2 mps 732 mmHg 68%
    21:00 +5°C° 0 mm 2 mps 732 mmHg 71%
    22:00 +6°C° 0 mm 1 mps 732 mmHg 74%
    23:00 +5°C° 0 mm 1 mps 732 mmHg 77%

    14 December, Saturday

    Time Temperature Precipitation Wind Pressure Humidity
    00:00 +5°C° 0 mm 1 mps 732 mmHg 77%
    01:00 +5°C° 0 mm 1 mps 732 mmHg 78%
    02:00 +5°C° 0 mm 1 mps 732 mmHg 79%
    03:00 +5°C° 0 mm 1 mps 732 mmHg 81%
    04:00 +5°C° 0 mm 1 mps 732 mmHg 84%
    05:00 +4°C° 0 mm 1 mps 732 mmHg 87%
    06:00 +5°C° 0 mm 1 mps 732 mmHg 86%
    07:00 +5°C° 0 mm 1 mps 732 mmHg 86%
    08:00 +5°C° 0 mm 1 mps 732 mmHg 85%
    09:00 +5°C° 0.3 mm 2 mps 732 mmHg 84%
    10:00 +5°C° 0.3 mm 3 mps 732 mmHg 82%
    11:00 +5°C° 0.3 mm 4 mps 732 mmHg 81%
    12:00 +5°C° 1.7 mm 4 mps 732 mmHg 84%
    13:00 +4°C° 1.7 mm 4 mps 732 mmHg 88%
    14:00 +3°C° 1.7 mm 4 mps 732 mmHg 92%
    15:00 +3°C° 1 mm 4 mps 732 mmHg 93%
    16:00 +3°C° 1 mm 4 mps 733 mmHg 93%
    17:00 +3°C° 1 mm 4 mps 733 mmHg 93%
    18:00 +1°C° 0.6 mm 4 mps 734 mmHg 93%
    19:00 +1°C° 0.6 mm 4 mps 734 mmHg 93%
    20:00 0°C° 0.6 mm 5 mps 735 mmHg 92%
    21:00 -1°C° 0.1 mm 4 mps 736 mmHg 90%
    22:00 -1°C° 0.1 mm 4 mps 736 mmHg 88%
    23:00 -1°C° 0.1 mm 3 mps 737 mmHg 86%

    15 December, Sunday

    Time Temperature Precipitation Wind Pressure Humidity
    00:00 -1°C° 0.1 mm 3 mps 738 mmHg 86%
    01:00 -1°C° 0.1 mm 2 mps 738 mmHg 85%
    02:00 -1°C° 0.1 mm 2 mps 739 mmHg 85%
    03:00 -1°C° 0.1 mm 2 mps 739 mmHg 87%
    04:00 -1°C° 0.1 mm 2 mps 740 mmHg 90%
    05:00 -2°C° 0.1 mm 2 mps 740 mmHg 92%
    06:00 0°C° 0.2 mm 1 mps 740 mmHg 92%
    07:00 0°C° 0.2 mm 1 mps 741 mmHg 92%
    08:00 0°C° 0.2 mm 1 mps 741 mmHg 92%
    09:00 +1°C° 0 mm 1 mps 742 mmHg 87%
    10:00 +1°C° 0 mm 1 mps 742 mmHg 81%
    11:00 +2°C° 0 mm 1 mps 742 mmHg 76%
    12:00 +2°C° 0 mm 1 mps 742 mmHg 73%
    13:00 +2°C° 0 mm 1 mps 742 mmHg 70%
    14:00 +3°C° 0 mm 1 mps 741 mmHg 67%
    15:00 +2°C° 0 mm 1 mps 741 mmHg 69%
    16:00 +2°C° 0 mm 1 mps 742 mmHg 71%
    17:00 +1°C° 0 mm 2 mps 742 mmHg 73%
    18:00 -1°C° 0 mm 2 mps 742 mmHg 74%
    19:00 -1°C° 0 mm 2 mps 742 mmHg 76%
    20:00 -2°C° 0 mm 2 mps 742 mmHg 77%
    21:00 -2°C° 0 mm 2 mps 742 mmHg 77%
    22:00 -2°C° 0 mm 2 mps 742 mmHg 76%
    23:00 -2°C° 0 mm 3 mps 742 mmHg 75%
    Show more